Regional Weather Roundup
Issued by NWS

Home | Current Version | Previous Version | Text Only | Print | Product List | Glossary Off
Versions: 1 2 3 4 5 6 7 8 9 10 11 12 13 14 15 16 17 18 19 20 21 22 23 24 25 26 27 28 29 30 31 32 33 34 35 36 37 38 39 40 41 42 43 44 45 46 47 48 49 50

000
ASUS43 KMKX 291500
RWRWI

WISCONSIN REGIONAL WEATHER ROUNDUP
NATIONAL WEATHER SERVICE MILWAUKEE/SULLIVAN WI
1000 AM CDT FRI MAY 29 2015

NOTE: "FAIR" INDICATES FEW OR NO CLOUDS BELOW 12,000 FEET WITH NO
SIGNIFICANT WEATHER AND/OR OBSTRUCTIONS TO VISIBILITY.

WIZ001-002-006>008-014>016-023>028-291600-
NORTHWEST WISCONSIN

CITY           SKY/WX    TMP DP  RH WIND       PRES   REMARKS
SUPERIOR ARPT  CLOUDY    49  45  84 CALM      29.88S
ASHLAND        CLOUDY    65  62  90 SW5       29.87S
HAYWARD        CLOUDY    64  61  90 S10       29.89S
SIREN          CLOUDY    67  63  86 SW9       29.89R
CUMBERLAND     CLOUDY    63  61  94 S7        29.90S
RICE LAKE      CLOUDY    64  61  89 S6        29.92R
CHETEK         CLOUDY    65  63  94 S7        29.90S
LADYSMITH      LGT RAIN  65  61  86 S8        29.93S
EAU CLAIRE     NOT AVBL
MENOMONIE      CLOUDY    67  64  90 S9        29.90F
NEW RICHMOND   CLOUDY    67  65  91 SW10      29.89S
OSCEOLA        CLOUDY    67  67  99 SW7       29.91S
$$

WIZ003>005-009-010-017-018-291600-
NORTH CENTRAL WISCONSIN

CITY           SKY/WX    TMP DP  RH WIND       PRES   REMARKS
MANITOWISH WTR CLOUDY    64  60  86 SW10      29.91S
ARBOR VITAE    CLOUDY    66  60  80 S12       29.92S
WOODRUFF       CLOUDY    66  60  80 S12       29.92S
RHINELANDER    CLOUDY    70  60  70 SW16G23   29.94F
EAGLE RIVER    CLOUDY    65  56  74 S7        29.93F
LAND O LAKES   CLOUDY    66  58  73 S9        29.93S
PHILLIPS       CLOUDY    64  60  85 SW9       29.92R
TOMAHAWK       PTSUNNY   69  60  74 S6        29.93F
MEDFORD        CLOUDY    65  61  87 S14       29.94S
MERRILL        CLOUDY    69  62  79 SW10G17   29.95S
$$

WIZ029-030-035-036-043>047-291600-
CENTRAL WISCONSIN

CITY           SKY/WX    TMP DP  RH WIND       PRES   REMARKS
WAUSAU         CLOUDY    69  61  75 S13       29.94S
MOSINEE        CLOUDY    66  63  88 S10       29.98R
MARSHFIELD     CLOUDY    68  61  78 S10       29.95S
STEVENS POINT  CLOUDY    66  61  83 S13       29.97F
WAUPACA        CLOUDY    66  64  94 S3        29.98F
WAUTOMA        NOT AVBL
WISC RAPIDS    CLOUDY    68  61  78 SW14G20   29.98S
CAMP DOUGLAS   NOT AVBL
$$

WIZ011>013-019>022-031-037>040-048>050-291600-
NORTHEAST WISCONSIN

CITY           SKY/WX    TMP DP  RH WIND       PRES   REMARKS
ANTIGO         PTSUNNY   68  62  80 SW12      29.96F
SHAWANO        CLOUDY    67  61  79 S6        29.98R
OCONTO         CLOUDY    64  64  99 S5        29.97S
STURGEON BAY   CLOUDY    61  55  82 S6        30.01S
GREEN BAY      LGT RAIN  67  61  81 S6        29.98S
MANITOWOC      LGT RAIN  61  57  88 S8        30.02R
APPLETON       CLOUDY    64  61  88 S7        29.99S
CLINTONVILLE   DRIZZLE   64  61  88 SW9       29.98R
OSHKOSH        CLOUDY    66  62  87 S9        29.98S
$$

WIZ032>034-041-042-053>061-291600-
SOUTHWEST WISCONSIN

CITY           SKY/WX    TMP DP  RH WIND       PRES   REMARKS
LA CROSSE      PTSUNNY   73  61  65 S9        29.93F
SPARTA         PTSUNNY   69  60  73 S10       29.97R
VIROQUA        PTSUNNY   67  64  90 S9        29.97F
BOSCOBEL       CLOUDY    73  64  73 VRB5      29.97F
PRAIRIE DU CHI CLOUDY    70  63  79 SE3       29.96F
PLATTEVILLE    CLOUDY    68  65  88 SE8       29.99S
$$

WIZ056-057-062-063-064-067-068-291600-
SOUTH CENTRAL WISCONSIN

CITY           SKY/WX    TMP DP  RH WIND       PRES   REMARKS
REEDSBURG      CLOUDY    67  64  92 S3        29.98R
BARABOO/DELLS  CLOUDY    68  63  85 SW9       29.98R
LONE ROCK      NOT AVBL
MINERAL POINT  CLOUDY    70  63  78 SE12      29.99F
MADISON        CLOUDY    71  62  73 S12       29.98F
MIDDLETON      CLOUDY    70  65  83 E8        30.00S
WATERTOWN      PTSUNNY  N/A N/A N/A SE6       30.01S
MONROE         CLOUDY    72  64  78 S12       30.00S
JANESVILLE     MOSUNNY   79  64  61 S12G17    29.99F HX  81
$$

WIZ051-052-058>065-066-070>072-291600-
SOUTHEAST WISCONSIN

CITY           SKY/WX    TMP DP  RH WIND       PRES   REMARKS
MILWAUKEE      PTSUNNY   77  64  64 SW12      30.01F
WAUKESHA       MOSUNNY   73  63  68 S7        30.03F
MILWAUKEE/TIMM MOSUNNY   75  61  60 SW10      30.02F
RACINE         MOSUNNY   74  62  66 SE5       30.03F
BURLINGTON     MOSUNNY   77  64  65 S8        30.02S
KENOSHA        PTSUNNY   79  66  64 S13G21    30.02F HX  81
FOND DU LAC    CLOUDY    68  63  84 S9        29.98F
SHEBOYGAN      CLOUDY    68  64  87 S6        30.01F
WEST BEND      CLOUDY    70  59  68 CALM      30.02F
JUNEAU         CLOUDY    69  62  77 SE10      30.01F
$$

LSZ147-162-291600-
LAKE SUPERIOR

STATION/POSITION TIME  TEMP    WIND        PRES    WAVE
                       AIR SEA DIR/SP/G            HT/PER
                 (UTC) (F)     (DEG/KT/KT) (MB)    (FT/S)
W MID LAKE BUOY  1350   40 37   70/  4/  6   N/A     1
DEVILS ISLAND    1400   43      60/  3/  3   N/A
PORT WING        1400   45      CALM  /  2   N/A
SAXON HARBOR     1400   65     200/  4/  7   N/A
$$

LMZ867-665-643>646-291600-
LAKE MICHIGAN

STATION/POSITION TIME  TEMP    WIND        PRES    WAVE
                       AIR SEA DIR/SP/G            HT/PER
                 (UTC) (F)     (DEG/KT/KT) (MB)    (FT/S)
CHAMBERS ISLAND  1400   63     150/  6/  9   N/A
N MID LAKE BUOY  1350   42 37  200/  6/  8   N/A     1
NORTHPORT PIER   1400   56     150/  7/ 12   N/A
SISTER BAY       1418   58     150/  9/ 12   N/A
ALGOMA LAKESHORE 1408          170/  3/  5   N/A
KEWAUNEE LAKESHO 1400   49     170/  7/  9   N/A
SHEBOYGAN LAKESH 1400   52     170/ 13/ 15   N/A
PORT WASHINGTON  1440   59      90/  1/  2   N/A
ATWATER BUOY     1400   54     170/  6/  8   N/A
MILWAUKEE LAKESH 1400   55     180/  3/  4   N/A
S MID LAKE BUOY  1350   47 38  160/ 10/ 10   N/A     1
KENOSHA   LAKESH 1400   57     170/ 11/ 13   N/A
$$

TC  - TEMPERATURE IN CELSIUS
VSB - VISIBILITY IN STATUTE MILES
WCI - WIND CHILL INDEX
HX  - HEAT INDEX



USA.gov is the U.S. government's official web portal to all federal, state and local government web resources and services.